Buckhannon, WV

5:04 AM EDT on March 23, 2017 (GMT -0400)
Buckhannon

Weather History for KW22 - January, 2013

Change the Weather History Date:

Monday, January 7, 2013

  Actual Average (KCKB) Record (KCKB)
Temperature  
Mean Temperature 28 °F -  
Max Temperature 32 °F 39 °F 73 °F (1946)
Min Temperature 24 °F 22 °F -12 °F (1942)
Degree Days  
Heating Degree Days 37    
Moisture  
Dew Point 26 °F    
Average Humidity 88    
Maximum Humidity 100    
Minimum Humidity 69    
Precipitation  
Precipitation 0.00 in - - ()
Sea Level Pressure  
Sea Level Pressure 30.35 in    
Wind  
Wind Speed 5 mph (WSW)    
Max Wind Speed 10 mph    
Max Gust Speed 17 mph    
Visibility 8 miles    
Events Rain    
Averages and records for this station are not official NWS values.
T = Trace of Precipitation, MM = Missing Value Source: NWS Daily Summary

Daily Weather History Graph

Daily Weather History Graph

Search for Another Location

Airport or City:

Trip Planner

Search our weather history database for the weather conditions in past years. The results will help you decide how hot, cold, wet, or windy it might be!

Date:

Astronomy

Jan. 07, 2013 Rise Set
Actual Time 7:40 AM EST 5:15 PM EST
Civil Twilight 7:10 AM EST 5:44 PM EST
Nautical Twilight 6:37 AM EST 6:17 PM EST
Astronomical Twilight 6:05 AM EST 6:50 PM EST
Moon 3:02 AM EST (1/7) 1:24 PM EST (1/7)
Length of Visible Light 10h 34m
Length of Day
9h 34m
Waning Crescent, 23% of the Moon is Illuminated
Jan 7
Waning Crescent
Jan 11
New
Jan 18
First Quarter
Jan 26
Full
Feb 3
Last Quarter

Hourly Weather History & Observations

Time (EST) Temp. Windchill Dew Point Humidity Pressure Visibility Wind Dir Wind Speed Gust Speed Precip Events Conditions
12:15 AM 32.0 °F 24.8 °F 32.0 °F 100% 30.23 in 3.0 mi NW 8.1 mph - N/A Rain Light Rain
12:55 AM 32.0 °F 23.6 °F 30.2 °F 93% 30.25 in 7.0 mi West 10.4 mph - N/A   Overcast
1:15 AM 30.2 °F 23.4 °F 30.2 °F 100% 30.26 in 8.0 mi West 6.9 mph - N/A   Mostly Cloudy
1:35 AM 30.2 °F 21.9 °F 30.2 °F 100% 30.27 in 8.0 mi WNW 9.2 mph - N/A   Mostly Cloudy
1:55 AM 30.2 °F 23.4 °F 28.4 °F 93% 30.28 in 10.0 mi West 6.9 mph 17.3 mph N/A   Overcast
2:15 AM 30.2 °F 22.6 °F 28.4 °F 93% 30.29 in 10.0 mi West 8.1 mph - N/A   Overcast
2:35 AM 30.2 °F 21.9 °F 28.4 °F 93% 30.29 in 10.0 mi WSW 9.2 mph - N/A   Overcast
2:55 AM 30.2 °F 22.6 °F 28.4 °F 93% 30.30 in 9.0 mi WSW 8.1 mph - N/A   Overcast
3:15 AM 30.2 °F 22.6 °F 28.4 °F 93% 30.30 in 3.0 mi WSW 8.1 mph - N/A   Light Freezing Rain
3:35 AM 28.4 °F 19.7 °F 28.4 °F 100% 30.31 in 2.0 mi WSW 9.2 mph - N/A   Overcast
3:55 AM 28.4 °F 20.4 °F 28.4 °F 100% 30.32 in 2.0 mi West 8.1 mph - N/A   Light Freezing Rain
4:15 AM 28.4 °F 20.4 °F 28.4 °F 100% 30.32 in 2.5 mi West 8.1 mph - N/A   Overcast
4:35 AM 28.4 °F 22.2 °F 28.4 °F 100% 30.32 in 3.0 mi West 5.8 mph - N/A   Overcast
4:55 AM 28.4 °F 23.3 °F 28.4 °F 100% 30.32 in 3.0 mi West 4.6 mph - N/A   Overcast
5:15 AM 28.4 °F 23.3 °F 28.4 °F 100% 30.32 in 4.0 mi WNW 4.6 mph - N/A   Mostly Cloudy
5:35 AM 28.4 °F 22.2 °F 28.4 °F 100% 30.32 in 5.0 mi WSW 5.8 mph - N/A   Mostly Cloudy
5:55 AM 28.4 °F 23.3 °F 28.4 °F 100% 30.33 in 5.0 mi West 4.6 mph - N/A   Overcast
6:15 AM 28.4 °F 23.3 °F 28.4 °F 100% 30.34 in 6.0 mi West 4.6 mph - N/A   Mostly Cloudy
6:35 AM 28.4 °F 23.3 °F 28.4 °F 100% 30.36 in 6.0 mi West 4.6 mph - N/A   Overcast
6:55 AM 28.4 °F 21.2 °F 28.4 °F 100% 30.37 in 6.0 mi West 6.9 mph - N/A   Overcast
7:15 AM 28.4 °F 24.6 °F 28.4 °F 100% 30.38 in 7.0 mi WSW 3.5 mph - N/A   Mostly Cloudy
7:35 AM 28.4 °F - 28.4 °F 100% 30.39 in 5.0 mi Calm Calm - N/A   Mostly Cloudy
7:55 AM 28.4 °F 22.2 °F 28.4 °F 100% 30.40 in 5.0 mi SW 5.8 mph - N/A   Mostly Cloudy
8:15 AM 28.4 °F 22.2 °F 26.6 °F 93% 30.40 in 6.0 mi SW 5.8 mph - N/A   Mostly Cloudy
8:35 AM 28.4 °F 21.2 °F 26.6 °F 93% 30.41 in 6.0 mi SW 6.9 mph - N/A   Overcast
8:55 AM 28.4 °F 20.4 °F 26.6 °F 93% 30.43 in 6.0 mi SW 8.1 mph - N/A   Overcast
9:15 AM 28.4 °F 20.4 °F 26.6 °F 93% 30.43 in 6.0 mi SW 8.1 mph - N/A   Overcast
9:35 AM 28.4 °F 21.2 °F 26.6 °F 93% 30.45 in 6.0 mi WSW 6.9 mph - N/A   Overcast
9:55 AM 28.4 °F 22.2 °F 26.6 °F 93% 30.45 in 6.0 mi SW 5.8 mph - N/A   Overcast
10:15 AM 30.2 °F 24.3 °F 26.6 °F 86% 30.46 in 6.0 mi SW 5.8 mph - N/A   Overcast
10:35 AM 30.2 °F 24.3 °F 26.6 °F 86% 30.46 in 6.0 mi SW 5.8 mph - N/A   Overcast
10:55 AM 30.2 °F 23.4 °F 26.6 °F 86% 30.46 in 7.0 mi WSW 6.9 mph - N/A   Overcast
11:15 AM 30.2 °F 26.7 °F 26.6 °F 86% 30.46 in 7.0 mi SW 3.5 mph - N/A   Overcast
11:35 AM 30.2 °F - 26.6 °F 86% 30.45 in 8.0 mi Calm Calm - N/A   Overcast
11:55 AM 30.2 °F - 24.8 °F 80% 30.43 in 10.0 mi Calm Calm - N/A   Overcast
12:15 PM 30.2 °F - 23.0 °F 75% 30.42 in 10.0 mi Calm Calm - N/A   Overcast
12:35 PM 30.2 °F - 23.0 °F 75% 30.41 in 10.0 mi Calm Calm - N/A   Overcast
12:55 PM 30.2 °F - 23.0 °F 75% 30.40 in 10.0 mi Calm Calm - N/A   Overcast
1:15 PM 30.2 °F - 23.0 °F 75% 30.39 in 10.0 mi Calm Calm - N/A   Overcast
1:35 PM 30.2 °F 25.4 °F 23.0 °F 75% 30.39 in 10.0 mi SW 4.6 mph - N/A   Overcast
1:55 PM 32.0 °F 27.5 °F 24.8 °F 75% 30.38 in 10.0 mi SSW 4.6 mph - N/A   Overcast
2:15 PM 32.0 °F 26.4 °F 23.0 °F 69% 30.38 in 10.0 mi South 5.8 mph - N/A   Overcast
2:35 PM 32.0 °F 28.7 °F 23.0 °F 69% 30.38 in 10.0 mi South 3.5 mph - N/A   Overcast
2:55 PM 32.0 °F - 23.0 °F 69% 30.38 in 10.0 mi Calm Calm - N/A   Overcast
3:15 PM 32.0 °F 27.5 °F 23.0 °F 69% 30.38 in 10.0 mi SSE 4.6 mph - N/A   Scattered Clouds
3:35 PM 32.0 °F - 24.8 °F 75% 30.38 in 10.0 mi Calm Calm - N/A   Clear
3:55 PM 32.0 °F - 24.8 °F 75% 30.37 in 10.0 mi Calm Calm - N/A   Clear
4:15 PM 32.0 °F - 24.8 °F 75% 30.37 in 10.0 mi Calm Calm - N/A   Clear
4:35 PM 32.0 °F - 23.0 °F 69% 30.36 in 10.0 mi Calm Calm - N/A   Clear
4:55 PM 32.0 °F - 23.0 °F 69% 30.36 in 10.0 mi Calm Calm - N/A   Clear
5:15 PM 32.0 °F - 23.0 °F 69% 30.36 in 10.0 mi Calm Calm - N/A   Clear
5:35 PM 32.0 °F - 23.0 °F 69% 30.36 in 10.0 mi Calm Calm - N/A   Clear
5:55 PM 32.0 °F - 23.0 °F 69% 30.36 in 10.0 mi Calm Calm - N/A   Clear
6:15 PM 30.2 °F - 23.0 °F 75% 30.35 in 10.0 mi Calm Calm - N/A   Clear
6:35 PM 30.2 °F - 24.8 °F 80% 30.35 in 10.0 mi Calm Calm - N/A   Clear
6:55 PM 30.2 °F - 24.8 °F 80% 30.34 in 10.0 mi Calm Calm - N/A   Clear
7:15 PM 30.2 °F - 24.8 °F 80% 30.33 in 10.0 mi Calm Calm - N/A   Clear
7:35 PM 28.4 °F - 24.8 °F 86% 30.34 in 10.0 mi Calm Calm - N/A   Clear
7:55 PM 28.4 °F - 24.8 °F 86% 30.33 in 10.0 mi Calm Calm - N/A   Clear
8:15 PM 28.4 °F - 26.6 °F 93% 30.33 in 10.0 mi Calm Calm - N/A   Clear
8:35 PM 28.4 °F - 24.8 °F 86% 30.32 in 10.0 mi Calm Calm - N/A   Clear
8:55 PM 28.4 °F - 24.8 °F 86% 30.31 in 9.0 mi Calm Calm - N/A   Clear
9:15 PM 26.6 °F - 26.6 °F 100% 30.31 in 8.0 mi Calm Calm - N/A   Clear
9:35 PM 26.6 °F - 26.6 °F 100% 30.31 in 7.0 mi Calm Calm - N/A   Clear
9:55 PM 26.6 °F - 26.6 °F 100% 30.30 in 8.0 mi Calm Calm - N/A   Clear
10:15 PM 26.6 °F - 26.6 °F 100% 30.30 in 8.0 mi Calm Calm - N/A   Clear
10:35 PM 26.6 °F - 26.6 °F 100% 30.30 in 8.0 mi Calm Calm - N/A   Clear
10:55 PM 26.6 °F 20.0 °F 24.8 °F 93% 30.29 in 9.0 mi ESE 5.8 mph - N/A   Clear
11:15 PM 24.8 °F 19.1 °F 24.8 °F 100% 30.28 in 6.0 mi East 4.6 mph - N/A   Clear
11:35 PM 24.8 °F 20.5 °F 24.8 °F 100% 30.27 in 7.0 mi East 3.5 mph - N/A   Clear
11:55 PM 24.8 °F - 24.8 °F 100% 30.26 in 7.0 mi Calm Calm - N/A   Clear